When you browse on this site, cookies collect data to enhance your experience and personalize the content and advertising you see.
Visit our Privacy Policy to learn more. By continuing to use the site, you agree to this use of cookies and data.

Hourly Weather Zybovka

Today, 15 July, Wednesday

Time Temperature Precipitation Wind Pressure Humidity
00:00 +17°C° 0 mm 6 mps 733 mmHg 94%
01:00 +16°C° 0 mm 6 mps 733 mmHg 94%
02:00 +16°C° 0 mm 6 mps 733 mmHg 93%
03:00 +16°C° 0 mm 6 mps 734 mmHg 94%
04:00 +15°C° 0 mm 6 mps 734 mmHg 93%
05:00 +15°C° 0 mm 7 mps 734 mmHg 92%
06:00 +15°C° 0 mm 7 mps 734 mmHg 91%
07:00 +15°C° 0.1 mm 7 mps 734 mmHg 91%
08:00 +15°C° 0.1 mm 7 mps 734 mmHg 91%
09:00 +15°C° 0.1 mm 7 mps 734 mmHg 92%
10:00 +15°C° 0.5 mm 7 mps 735 mmHg 91%
11:00 +14°C° 0.5 mm 7 mps 735 mmHg 91%
12:00 +14°C° 0.5 mm 7 mps 735 mmHg 90%
13:00 +14°C° 0.1 mm 7 mps 735 mmHg 89%
14:00 +14°C° 0.1 mm 7 mps 736 mmHg 88%
15:00 +12°C° 0.1 mm 8 mps 736 mmHg 87%
16:00 +12°C° 0.2 mm 8 mps 736 mmHg 88%
17:00 +11°C° 0.2 mm 8 mps 736 mmHg 89%
18:00 +11°C° 0.2 mm 9 mps 736 mmHg 90%
19:00 +11°C° 0.2 mm 9 mps 737 mmHg 91%
20:00 +11°C° 0.2 mm 9 mps 737 mmHg 92%
21:00 +11°C° 0.2 mm 8 mps 737 mmHg 93%
22:00 +11°C° 0.1 mm 8 mps 737 mmHg 93%
23:00 +11°C° 0.1 mm 8 mps 737 mmHg 93%

Tomorrow, 16 July, Thursday

Time Temperature Precipitation Wind Pressure Humidity
00:00 +11°C° 0.1 mm 7 mps 737 mmHg 93%
01:00 +11°C° 0.1 mm 7 mps 737 mmHg 93%
02:00 +11°C° 0.1 mm 7 mps 738 mmHg 93%
03:00 +11°C° 0.1 mm 7 mps 738 mmHg 93%
04:00 +11°C° 0 mm 7 mps 738 mmHg 93%
05:00 +11°C° 0 mm 6 mps 738 mmHg 93%
06:00 +11°C° 0 mm 6 mps 739 mmHg 93%
07:00 +11°C° 0 mm 6 mps 739 mmHg 92%
08:00 +11°C° 0 mm 6 mps 739 mmHg 92%
09:00 +11°C° 0 mm 6 mps 740 mmHg 91%
10:00 +11°C° 0 mm 6 mps 740 mmHg 90%
11:00 +13°C° 0 mm 6 mps 740 mmHg 90%
12:00 +13°C° 0 mm 6 mps 741 mmHg 89%
13:00 +13°C° 0 mm 6 mps 741 mmHg 88%
14:00 +14°C° 0 mm 6 mps 741 mmHg 86%
15:00 +14°C° 0 mm 6 mps 741 mmHg 85%
16:00 +14°C° 0 mm 6 mps 741 mmHg 85%
17:00 +14°C° 0 mm 5 mps 741 mmHg 84%
18:00 +15°C° 0 mm 5 mps 741 mmHg 84%
19:00 +14°C° 0 mm 4 mps 742 mmHg 85%
20:00 +14°C° 0 mm 4 mps 742 mmHg 87%
21:00 +13°C° 0 mm 3 mps 742 mmHg 88%
22:00 +13°C° 0 mm 3 mps 742 mmHg 88%
23:00 +13°C° 0 mm 3 mps 742 mmHg 88%

Day after tomorrow, 17 July, Friday

Time Temperature Precipitation Wind Pressure Humidity
00:00 +13°C° 0 mm 3 mps 742 mmHg 88%
01:00 +13°C° 0 mm 3 mps 742 mmHg 90%
02:00 +12°C° 0 mm 3 mps 742 mmHg 92%
03:00 +11°C° 0 mm 3 mps 742 mmHg 94%
04:00 +12°C° 0 mm 3 mps 742 mmHg 92%
05:00 +12°C° 0 mm 3 mps 742 mmHg 91%
06:00 +13°C° 0 mm 3 mps 742 mmHg 89%
07:00 +14°C° 0 mm 3 mps 743 mmHg 87%
08:00 +14°C° 0 mm 3 mps 743 mmHg 86%
09:00 +16°C° 0 mm 3 mps 743 mmHg 85%
10:00 +17°C° 0 mm 3 mps 743 mmHg 82%
11:00 +18°C° 0 mm 4 mps 743 mmHg 79%
12:00 +19°C° 0 mm 4 mps 743 mmHg 77%
13:00 +20°C° 0.2 mm 4 mps 743 mmHg 75%
14:00 +20°C° 0.2 mm 4 mps 743 mmHg 72%
15:00 +21°C° 0.2 mm 4 mps 743 mmHg 70%
16:00 +20°C° 0.2 mm 3 mps 743 mmHg 74%
17:00 +19°C° 0.2 mm 3 mps 743 mmHg 78%
18:00 +19°C° 0.2 mm 3 mps 743 mmHg 82%
19:00 +18°C° 0 mm 2 mps 744 mmHg 84%
20:00 +17°C° 0 mm 2 mps 744 mmHg 86%
21:00 +16°C° 0 mm 2 mps 744 mmHg 87%
22:00 +16°C° 0 mm 2 mps 744 mmHg 89%
23:00 +15°C° 0 mm 2 mps 744 mmHg 90%

18 July, Saturday

Time Temperature Precipitation Wind Pressure Humidity
00:00 +15°C° 0 mm 2 mps 744 mmHg 91%
01:00 +14°C° 0 mm 2 mps 744 mmHg 92%
02:00 +14°C° 0 mm 2 mps 744 mmHg 92%
03:00 +14°C° 0 mm 2 mps 745 mmHg 92%
04:00 +14°C° 0 mm 2 mps 745 mmHg 92%
05:00 +14°C° 0 mm 2 mps 745 mmHg 92%
06:00 +14°C° 0 mm 2 mps 745 mmHg 93%
07:00 +16°C° 0 mm 2 mps 745 mmHg 88%
08:00 +17°C° 0 mm 2 mps 746 mmHg 83%
09:00 +19°C° 0 mm 2 mps 746 mmHg 79%
10:00 +19°C° 0.1 mm 3 mps 746 mmHg 76%
11:00 +20°C° 0.1 mm 3 mps 746 mmHg 73%
12:00 +21°C° 0.1 mm 3 mps 746 mmHg 70%
13:00 +21°C° 0.1 mm 3 mps 746 mmHg 69%
14:00 +21°C° 0.1 mm 4 mps 746 mmHg 69%
15:00 +22°C° 0.1 mm 4 mps 746 mmHg 69%
16:00 +21°C° 0.1 mm 3 mps 745 mmHg 71%
17:00 +21°C° 0.1 mm 3 mps 745 mmHg 73%
18:00 +20°C° 0.1 mm 3 mps 745 mmHg 75%
19:00 +19°C° 0 mm 2 mps 745 mmHg 79%
20:00 +18°C° 0 mm 2 mps 745 mmHg 84%
21:00 +16°C° 0 mm 1 mps 746 mmHg 88%
22:00 +16°C° 0 mm 2 mps 746 mmHg 89%
23:00 +15°C° 0 mm 2 mps 746 mmHg 90%

19 July, Sunday

Time Temperature Precipitation Wind Pressure Humidity
00:00 +15°C° 0 mm 2 mps 746 mmHg 92%
01:00 +15°C° 0 mm 2 mps 746 mmHg 92%
02:00 +14°C° 0 mm 2 mps 746 mmHg 93%
03:00 +14°C° 0 mm 2 mps 746 mmHg 94%
04:00 +14°C° 0 mm 2 mps 746 mmHg 94%
05:00 +14°C° 0 mm 2 mps 746 mmHg 93%
06:00 +15°C° 0 mm 2 mps 746 mmHg 93%
07:00 +16°C° 0 mm 3 mps 745 mmHg 87%
08:00 +17°C° 0 mm 3 mps 745 mmHg 82%
09:00 +19°C° 0 mm 3 mps 745 mmHg 77%
10:00 +20°C° 0.1 mm 3 mps 745 mmHg 74%
11:00 +21°C° 0.1 mm 3 mps 745 mmHg 70%
12:00 +22°C° 0.1 mm 3 mps 745 mmHg 67%
13:00 +22°C° 0.5 mm 3 mps 745 mmHg 68%
14:00 +22°C° 0.5 mm 3 mps 744 mmHg 68%
15:00 +22°C° 0.5 mm 3 mps 744 mmHg 69%
16:00 +22°C° 0.7 mm 3 mps 744 mmHg 71%
17:00 +21°C° 0.7 mm 3 mps 744 mmHg 74%
18:00 +21°C° 0.7 mm 3 mps 743 mmHg 76%
19:00 +20°C° 0.2 mm 3 mps 743 mmHg 80%
20:00 +18°C° 0.2 mm 2 mps 743 mmHg 84%
21:00 +17°C° 0.2 mm 2 mps 743 mmHg 88%
22:00 +16°C° 0 mm 2 mps 743 mmHg 89%
23:00 +16°C° 0 mm 2 mps 743 mmHg 90%

20 July, Monday

Time Temperature Precipitation Wind Pressure Humidity
00:00 +14°C° 0 mm 3 mps 742 mmHg 90%
01:00 +14°C° 0 mm 3 mps 742 mmHg 91%
02:00 +13°C° 0 mm 3 mps 742 mmHg 91%
03:00 +13°C° 0 mm 3 mps 742 mmHg 91%
04:00 +13°C° 0 mm 3 mps 742 mmHg 91%
05:00 +14°C° 0 mm 3 mps 742 mmHg 91%
06:00 +14°C° 0 mm 3 mps 741 mmHg 91%
07:00 +16°C° 0 mm 3 mps 741 mmHg 87%
08:00 +18°C° 0 mm 3 mps 741 mmHg 82%
09:00 +20°C° 0 mm 3 mps 741 mmHg 78%
10:00 +21°C° 0 mm 4 mps 741 mmHg 74%
11:00 +22°C° 0 mm 4 mps 740 mmHg 71%
12:00 +23°C° 0 mm 5 mps 740 mmHg 68%
13:00 +23°C° 0.3 mm 5 mps 740 mmHg 67%
14:00 +23°C° 0.3 mm 5 mps 739 mmHg 67%
15:00 +25°C° 0.3 mm 5 mps 739 mmHg 67%
16:00 +23°C° 0.8 mm 4 mps 739 mmHg 71%
17:00 +23°C° 0.8 mm 4 mps 738 mmHg 74%
18:00 +22°C° 0.8 mm 4 mps 738 mmHg 77%
19:00 +21°C° 0.2 mm 3 mps 738 mmHg 81%
20:00 +19°C° 0.2 mm 3 mps 738 mmHg 84%
21:00 +18°C° 0.2 mm 3 mps 737 mmHg 88%
22:00 +17°C° 0 mm 3 mps 737 mmHg 89%
23:00 +17°C° 0 mm 3 mps 737 mmHg 90%
Show more